Regional Weather Roundup
Issued by NWS

Home | Current Version | Previous Version | Graphics & Text | Print | Product List | Glossary On
Versions: 1 2 3 4 5 6 7 8 9 10 11 12 13 14 15 16 17 18 19 20 21 22 23 24 25 26 27 28 29 30 31 32 33 34 35 36 37 38 39 40 41 42 43 44 45 46 47 48 49 50
000
ASUS43 KDTX 191110
RWRMI
MICHIGAN HOURLY REGIONAL WEATHER ROUNDUP
NATIONAL WEATHER SERVICE DETROIT/PONTIAC MI
600 AM EST FRI DEC 19 2014

NOTE: "FAIR" INDICATES FEW OR NO CLOUDS BELOW 12,000 FEET WITH NO
SIGNIFICANT WEATHER AND/OR OBSTRUCTION TO VISIBILITY.

MIZ047>049-052>055-059>063-066>070-074>076-081>083-191200-
SOUTHEAST LOWER MICHIGAN

CITY           SKY/WX    TMP DP  RH WIND       PRES   REMARKS
ADRIAN         CLOUDY    29  25  85 NW6       30.22R WCI  23
ALMA           CLOUDY    25  19  80 N6        30.25R WCI  18
ANN ARBOR      CLOUDY    28  25  88 N3        30.22R
BAD AXE        CLOUDY    22  20  93 W6        30.22R WCI  15
CARO           CLOUDY    25  20  82 NW5       30.23R WCI  19
DETROIT CITY   CLOUDY    29  20  69 N9        30.23R WCI  20
DETROIT        CLOUDY    27  21  80 N7        30.23R WCI  19
FLINT          CLOUDY    26  20  77 N6        30.24R WCI  19
GROSSE ILE     CLOUDY    28  23  80 N8        30.22R WCI  20
HILLSDALE      CLOUDY    28  27  97 W5        30.19S FOG     WCI  22
HOWELL         CLOUDY    25  24  95 N3        30.22R

CITY           SKY/WX    TMP DP  RH WIND       PRES   REMARKS
JACKSON        CLOUDY    27  25  92 N6        30.20S WCI  20
LAMBERTVILLE   CLOUDY    32  28  86 W5        30.23R WCI  27
LANSING        CLOUDY    26  22  84 N5        30.23R WCI  20
LAPEER         CLOUDY    25  22  86 NW3       30.23R
MASON          CLOUDY    26  24  93 N5        30.22R WCI  20
MONROE         CLOUDY    28  27  93 CALM      30.21R
MT. CLEMENS    CLOUDY    27  24  87 NW6       30.21R WCI  21
PONTIAC        CLOUDY    24  20  84 N5        30.21R WCI  18
PORT HOPE        N/A     29  19  66 N5        30.20R WCI  24
PORT HURON     CLOUDY    27  21  80 W8        30.22R WCI  18
TRI CITIES     CLOUDY    25  19  78 NW6       30.25R WCI  18
TROY           CLOUDY    28  21  75 W5        30.24R WCI  23
SAGINAW HB     CLOUDY    27  23  86 N5        30.24S WCI  21
$$
MIZ043>046-050>051-056>058-064>065-071>073-077>080-191200-
SOUTHWEST LOWER MICHIGAN

CITY           SKY/WX    TMP DP  RH WIND       PRES   REMARKS
BATTLE CREEK   CLOUDY    29  26  89 W3        30.21S FOG
BENTON HARBOR  CLOUDY    28  25  88 E5        30.24R WCI  23
BIG RAPIDS     CLOUDY    22  20  91 CALM      30.23R
COLDWATER      CLOUDY    27  26  94 W7        30.21R WCI  20
FREMONT        FAIR      18  17  93 CALM      30.24R
HOLLAND        CLEAR     21  17  84 CALM      30.25S
GRAND RAPIDS   CLOUDY    27  20  75 W6        30.24R WCI  20
IONIA          CLOUDY    28  23  82 N6        30.22S WCI  21
KALAMAZOO      CLOUDY    28  24  85 NW8       30.23R WCI  20
LUDINGTON      PTCLDY    12   8  87 CALM      30.27S
MARSHALL       CLOUDY    28  26  94 CALM      30.21R FOG
MOUNT PLEASANT CLOUDY    22  19  85 CALM      30.25R
MUSKEGON       CLEAR     20  16  84 NE5       30.26R WCI  13
SOUTH HAVEN    PTCLDY    21  20  94 NE3       30.24S
$$
MIZ016>042-191200-
NORTHERN LOWER MICHIGAN

CITY           SKY/WX    TMP DP  RH WIND       PRES   REMARKS
ALPENA         MOCLDY    14  11  87 CALM      30.24R
BEAVER ISLAND  CLEAR     11   9  92 CALM      30.26R
BELLAIRE       PTCLDY     8   5  88 CALM      30.27S
CADILLAC       FOG       15  13  93 CALM      30.21S VSB 3/4
CHARLEVOIX     CLEAR     11  10  93 CALM      30.28R
FRANKFORT      CLOUDY    14  13  95 CALM      30.26S
GAYLORD        PTCLDY     2  -1  88 W3        30.20R
GRAYLING       FLURRIES   6   3  88 CALM      30.23R
HARBOR SPRINGS PTCLDY     8   5  88 CALM      30.25R
HOUGHTON LAKE  MOCLDY    12  10  92 W5        30.23R WCI   4
MANISTEE       MOCLDY    10   7  85 CALM      30.27R
OSCODA         CLEAR     13  12  92 CALM      30.23R
PELLSTON       PTCLDY    -1  -5  82 CALM      30.25S
ROGERS CITY    MOCLDY    14  13  98 W3        30.25R
TRAVERSE CITY  CLOUDY    14  10  84 S3        30.27R
$$
MIZ007>008-015-191200-
EASTERN UPPER MICHIGAN

CITY           SKY/WX    TMP DP  RH WIND       PRES   REMARKS
KINROSS        PTCLDY     9   5  85 CALM      30.24S
MACKINAC ISLAN PTCLDY    13  10  91 N3        30.24S
NEWBERRY       MOCLDY    13  12  99 CALM      30.23S
S. S. MARIE    PTCLDY     8   4  83 CALM      30.25R
MUNISING         N/A     24  18  77 S5        30.26R WCI  18
$$
MIZ004>006-011>014-085-191200-
CENTRAL UPPER MICHIGAN

CITY           SKY/WX    TMP DP  RH WIND       PRES   REMARKS
MANISTIQUE     PTCLDY     7   5  91 CALM      30.26S
ESCANABA       PTCLDY    10   7  85 CALM      30.26S
MENOMINEE      PTCLDY    16  12  86 NW5       30.27S WCI   9
SAWYER-GWINN   CLOUDY    21  18  91 CALM      30.23S
$$
MIZ001>003-009>011-084-191200-
WESTERN UPPER MICHIGAN

CITY           SKY/WX    TMP DP  RH WIND       PRES   REMARKS
IRON MOUNTAIN  MOCLDY     2  -1  88 N3        30.25R
HOUGHTON       CLOUDY    17  13  84 NW5       30.24S WCI  10
COPPER HARBOR    N/A     26  20  77 W3        30.27S
IRONWOOD       PTCLDY     5   3  92 CALM      30.22S
$$

ABBREVIATIONS USED IN REMARKS
   TC - TEMPERATURE IN CELSIUS
  WCI - WIND CHILL INDEX
   HX - HEAT INDEX
  VSB - VISIBILITY



USA.gov is the U.S. government's official web portal to all federal, state and local government web resources and services.